Home > Weather > Shreveport > Past weeks

Flag for USA Past Weather in Shreveport, Louisiana, USA — Yesterday and Last 2 Weeks

Now
94 °F

Scattered clouds.


Feels Like: 99 °F
Forecast: 76 / 93 °F
Wind: 8 mph from Southwest

Location: Shreveport Regional Airport

Current Time: Jun 24, 2016 at 5:16:56 PM

Latest Report: Jun 24, 2016 at 3:56 PM


Visibility: 10 mi

Pressure: 30.01 "Hg

Humidity: 44%

Dew Point: 69 °F

Location of ShreveportLocation

Past Weather in Shreveport — Graph

°F

Shreveport Temperature Yesterday

Maximum temperature yesterday: 94 °F (at 2:56 PM)
Minimum temperature yesterday: 74 °F (at 5:56 AM)
Average temperature yesterday: 85 °F

High & Low Weather Summary for the Past Weeks

 TemperatureHumidityPressure
High95 °F (Jun 16, 2:56 PM)97% (Jun 12, 3:56 AM)30.22 "Hg (Jun 12, 3:56 AM)
Low72 °F (Jun 19, 4:56 AM)33% (Jun 9, 4:56 PM)29.80 "Hg (Jun 14, 5:56 PM)
Average83 °F76%30.00 "Hg
* Reported Jun 9 3:56 PM — Jun 24 3:56 PM, Shreveport, Weather by CustomWeather, © 2016

Note: Actual official high and low records may vary slightly from our data, if they occured in-between our weather recording intervals... More about our weather records

Advertising

Shreveport Weather History for the Previous 24 Hours

Scroll right to see more
 ConditionsComfort  
Time TempWeatherWind HumidityBarometerVisibility
3:56 PM
Fri, Jun 24
94 °FScattered clouds.8 mph44%30.01 "Hg10 mi
2:56 PM90 °FScattered clouds.10 mph54%30.03 "Hg10 mi
1:56 PM93 °FPassing clouds.6 mph49%30.04 "Hg10 mi
12:56 PM91 °FPassing clouds.7 mph50%30.06 "Hg10 mi
11:56 AM89 °FPassing clouds.8 mph53%30.08 "Hg10 mi
10:56 AM89 °FPassing clouds.10 mph52%30.09 "Hg10 mi
9:56 AM87 °FSunny.12 mph57%30.09 "Hg10 mi
8:56 AM83 °FPassing clouds.10 mph72%30.09 "Hg10 mi
7:56 AM79 °FScattered clouds.7 mph88%30.08 "Hg10 mi
6:56 AM77 °FPassing clouds.5 mph90%30.06 "Hg10 mi
5:56 AM77 °FPassing clouds.6 mph90%30.04 "Hg10 mi
4:56 AM78 °FClear.7 mph87%30.03 "Hg10 mi
3:56 AM79 °FClear.8 mph84%30.02 "Hg10 mi
2:56 AM79 °FClear.8 mph84%30.02 "Hg10 mi
1:56 AM81 °FClear.9 mph79%30.01 "Hg10 mi
12:56 AM81 °FPassing clouds.10 mph79%30.01 "Hg10 mi
11:56 PM
Thu, Jun 23
82 °FPassing clouds.7 mph79%30.01 "Hg10 mi
10:56 PM82 °FPassing clouds.7 mph79%30.00 "Hg10 mi
9:56 PM84 °FPassing clouds.6 mph72%29.99 "Hg10 mi
8:56 PM85 °FPassing clouds.5 mph72%29.98 "Hg10 mi
7:56 PM89 °FPassing clouds.5 mph61%29.98 "Hg10 mi
6:56 PM92 °FPassing clouds.7 mph54%29.98 "Hg10 mi
5:56 PM92 °FPassing clouds.8 mph52%29.98 "Hg10 mi
Weather by CustomWeather, © 2016

See weather overviewHow to use our weather pages